Wind_Speed
36 34 32 30 29 26 23 24 24 31 36 34 32 29 28 29 31 30 32 33 34 35 35 37 39 41 41 42 42 45 46 46
36 35 33 31 31 29 28 29 29 34 39 33 30 30 31 30 30 32 32 34 35 36 36 37 38 39 40 41 44 46 47 48
38 37 36 34 31 30 31 34 33 34 33 32 31 30 31 30 30 30 31 32 33 32 33 34 36 38 40 41 42 45 47 47
39 38 37 37 35 34 34 32 33 33 33 32 30 30 30 32 31 31 31 32 33 34 36 37 37 37 38 38 40 41 44 48
38 40 40 38 37 36 35 32 31 33 31 31 30 31 31 31 31 31 31 32 34 34 33 33 35 35 36 38 40 42 44 46
42 43 42 42 39 38 32 31 32 31 30 30 30 30 29 30 30 31 32 30 28 29 30 32 33 35 37 39 42 44 46 47
47 46 44 41 38 34 32 30 30 29 29 30 30 29 30 31 31 30 28 26 27 29 30 31 32 34 36 39 41 43 45 46
46 39 35 30 31 32 29 29 29 29 29 30 30 30 31 30 29 28 26 28 29 30 31 32 33 36 38 40 42 43 45 47
39 35 32 30 29 29 30 30 29 28 30 30 29 30 29 29 29 28 28 30 31 31 32 33 35 37 39 39 41 44 46 49
31 33 33 31 29 30 30 29 29 28 29 30 29 29 28 29 29 29 30 32 32 32 34 36 37 39 41 42 43 46 48 50
30 31 34 30 30 30 29 30 28 29 29 29 29 28 28 28 29 31 33 33 34 34 37 39 40 41 42 44 45 48 49 49
35 33 25 27 28 28 29 29 30 30 30 30 29 28 28 29 31 32 34 35 35 37 39 41 41 42 43 44 47 49 50 50
32 26 26 29 29 30 31 31 31 31 32 30 28 28 29 31 32 34 35 36 37 38 39 40 41 41 43 45 47 48 49 51
30 25 27 30 31 32 32 31 32 33 31 30 29 30 31 33 34 36 36 37 37 38 38 39 39 41 42 43 46 48 49 51
30 31 32 31 31 31 33 31 32 31 30 30 30 30 33 34 35 36 37 37 38 37 37 37 38 40 41 44 46 49 52 54
33 32 30 31 31 31 30 29 31 29 28 29 29 31 33 33 35 35 36 35 35 35 36 37 38 40 43 45 48 51 53 54
27 30 33 35 34 29 26 29 28 28 28 28 29 31 31 31 31 32 33 34 34 34 35 36 39 42 44 47 50 51 53 55
26 31 35 38 36 30 28 28 28 27 26 27 28 28 27 27 29 30 31 32 32 33 34 36 39 41 45 47 48 50 54 59
32 34 38 40 33 28 28 27 27 25 25 26 24 24 24 25 26 28 29 29 30 32 34 37 39 41 43 46 47 52 56 61
Wind_Direction
252 256 259 261 263 263 266 274 280 288 294 288 284 284 284 284 286 287 287 286 286 287 288 289 291 292 292 292 292 290 289 287
250 254 255 257 259 260 264 269 279 284 283 276 277 277 278 280 282 283 284 284 286 286 288 289 289 291 291 290 290 290 289 287
253 254 257 261 262 263 270 276 283 276 271 271 273 274 277 282 282 283 285 285 287 290 290 290 289 289 289 290 291 291 291 290
253 258 259 260 259 266 274 279 278 271 272 273 275 277 279 279 282 284 285 288 290 292 294 295 296 296 296 296 296 296 295 293
252 254 257 261 264 267 277 271 266 268 268 270 273 274 276 280 280 281 284 285 287 289 290 292 294 298 300 302 302 302 301 301
253 254 258 263 265 271 264 259 262 263 267 269 270 272 274 275 278 279 278 278 281 286 293 298 301 303 305 307 307 306 305 302
255 258 260 261 262 257 257 262 263 265 268 269 269 270 272 274 274 273 276 283 288 294 297 300 302 305 308 309 309 309 307 304
246 250 253 255 252 253 258 260 261 264 265 265 267 272 275 274 273 278 284 288 292 297 300 302 305 309 312 312 312 311 309 307
248 249 250 246 251 257 260 260 262 264 265 268 273 276 275 277 282 285 288 292 296 300 303 303 303 306 309 309 310 309 308 306
244 241 243 248 253 255 256 257 259 262 266 271 273 274 278 282 284 285 290 292 294 296 298 299 300 304 305 308 309 310 310 308
243 244 244 251 251 251 255 256 257 262 265 267 268 270 275 279 280 281 284 289 291 295 295 296 298 301 303 305 307 309 308 306
243 246 245 247 251 251 252 255 258 260 261 260 261 266 274 279 283 287 289 291 292 292 294 296 299 301 302 303 305 306 307 307
242 247 249 253 252 253 254 253 256 258 256 256 262 269 277 284 287 288 289 289 289 293 296 297 298 300 301 304 306 307 308 307
240 245 246 247 250 249 249 251 253 253 254 259 266 273 280 282 285 286 288 290 292 293 295 297 300 302 303 305 306 307 308 309
238 240 245 247 246 245 245 247 249 252 256 263 270 277 279 283 285 288 290 292 293 295 299 301 302 302 304 305 306 308 310 312
230 237 246 243 244 241 240 244 248 253 259 267 274 278 281 284 287 289 292 293 296 299 300 302 303 304 306 307 310 312 314 316
229 237 240 241 242 242 243 246 251 256 264 270 275 278 282 285 289 292 294 296 298 301 302 305 306 307 309 312 314 316 317 319
225 233 237 241 244 245 244 247 253 259 265 271 274 278 284 289 293 294 295 298 301 303 306 307 309 312 313 315 317 318 319 322
226 231 238 242 245 242 243 248 254 258 266 268 275 281 286 291 293 294 297 301 305 307 309 310 312 313 315 317 318 319 322 325
Height
5848 5850 5852 5852 5853 5853 5854 5855 5854 5854 5854 5854 5854 5854 5853 5853 5852 5852 5851 5849 5849 5848 5847 5845 5844 5842 5841 5840 5839 5837 5837 5837
5841 5843 5845 5847 5847 5848 5849 5850 5849 5849 5848 5848 5848 5848 5848 5847 5846 5845 5844 5843 5841 5840 5839 5839 5837 5836 5834 5832 5829 5827 5825 5824
5832 5835 5837 5839 5841 5842 5843 5843 5841 5841 5841 5841 5841 5841 5840 5839 5838 5838 5837 5836 5834 5832 5832 5831 5829 5828 5826 5824 5821 5817 5814 5813
5824 5826 5829 5831 5833 5835 5835 5834 5834 5834 5834 5833 5833 5833 5833 5832 5832 5830 5829 5829 5827 5826 5824 5823 5820 5818 5816 5813 5810 5807 5804 5801
5816 5818 5820 5822 5824 5826 5827 5827 5827 5828 5827 5827 5826 5826 5825 5825 5825 5824 5823 5822 5821 5819 5817 5815 5812 5810 5807 5804 5801 5798 5794 5790
5806 5808 5811 5812 5814 5816 5818 5819 5819 5820 5820 5821 5820 5820 5820 5820 5819 5818 5817 5816 5815 5813 5810 5808 5805 5802 5798 5795 5792 5788 5785 5781
5795 5798 5801 5803 5805 5808 5809 5810 5811 5812 5813 5813 5814 5814 5814 5814 5813 5811 5810 5808 5807 5805 5803 5800 5797 5794 5791 5787 5783 5779 5775 5770
5784 5789 5792 5795 5797 5799 5801 5802 5803 5804 5806 5807 5807 5807 5807 5806 5805 5803 5802 5801 5800 5798 5795 5791 5788 5785 5782 5778 5774 5769 5765 5760
5779 5782 5785 5787 5789 5791 5793 5794 5795 5796 5798 5799 5799 5799 5798 5798 5796 5795 5794 5794 5792 5790 5787 5784 5781 5778 5774 5770 5766 5761 5756 5751
5772 5774 5778 5780 5783 5785 5787 5788 5789 5790 5791 5791 5791 5791 5790 5790 5789 5788 5788 5787 5785 5783 5780 5777 5773 5770 5766 5761 5757 5752 5747 5741
5764 5767 5770 5773 5775 5777 5779 5781 5782 5783 5783 5784 5785 5785 5784 5784 5783 5782 5781 5780 5778 5775 5772 5769 5765 5761 5757 5753 5748 5742 5737 5732
5755 5756 5762 5765 5767 5769 5771 5773 5775 5776 5777 5778 5778 5778 5778 5777 5776 5775 5773 5771 5770 5767 5764 5760 5755 5751 5748 5743 5739 5733 5728 5722
5745 5750 5754 5757 5759 5761 5763 5765 5768 5769 5770 5771 5771 5771 5771 5770 5769 5767 5766 5764 5761 5757 5754 5750 5747 5743 5739 5734 5729 5724 5718 5712
5739 5743 5746 5749 5752 5754 5757 5759 5760 5762 5763 5764 5764 5764 5763 5762 5761 5759 5757 5755 5752 5749 5746 5742 5737 5733 5729 5724 5719 5713 5707 5701
5733 5735 5738 5741 5744 5747 5750 5751 5753 5754 5755 5756 5756 5755 5755 5753 5752 5750 5748 5746 5743 5740 5736 5732 5727 5723 5719 5714 5709 5702 5696 5689
5726 5728 5731 5733 5736 5739 5742 5744 5745 5746 5747 5747 5747 5746 5746 5744 5743 5742 5739 5737 5735 5731 5727 5722 5718 5714 5710 5704 5698 5692 5685 5676
5718 5721 5723 5725 5727 5731 5734 5736 5737 5738 5739 5739 5739 5738 5738 5736 5735 5733 5732 5729 5726 5721 5717 5713 5709 5704 5699 5693 5687 5679 5673 5666
5711 5714 5715 5714 5718 5724 5726 5727 5729 5730 5731 5731 5730 5730 5729 5728 5727 5725 5724 5720 5716 5712 5708 5704 5700 5694 5689 5683 5676 5669 5661 5652
5701 5703 5705 5707 5712 5716 5718 5720 5721 5722 5722 5722 5722 5722 5721 5720 5719 5718 5715 5711 5706 5702 5699 5695 5691 5687 5680 5673 5666 5658 5649 5639